| time (UTC) | temp F | wind direction | speed MPH | gust MPH | rain 1hr in | rain 24hr in | rain mn in | humidity % | barometer mb |
| 20260906193006 | 77 | 20 | 5.0 | 10.0 | 0.00 | 0.00 | 0.00 | 38 | 1014.9 |
| 20260906191505 | 76 | 10 | 4.0 | 12.0 | 0.00 | 0.00 | 0.00 | 41 | 1014.8 |
| 20260906190004 | 73 | 360 | 1.0 | 12.0 | 0.00 | 0.00 | 0.00 | 44 | 1015.0 |
| 20260906184503 | 77 | 59 | 1.0 | 11.0 | 0.00 | 0.00 | 0.00 | 40 | 1015.0 |
| 20260906183100 | 76 | 59 | 2.0 | 10.0 | 0.00 | 0.00 | 0.00 | 41 | 1015.2 |
| 20260906181558 | 76 | 80 | 4.0 | 11.0 | 0.00 | 0.00 | 0.00 | 41 | 1015.0 |
| 20260906180106 | 76 | 31 | 5.0 | 10.0 | 0.00 | 0.00 | 0.00 | 41 | 1015.1 |
| 20260906174605 | 74 | 79 | 4.0 | 10.0 | 0.00 | 0.00 | 0.00 | 44 | 1015.3 |
| 20260906173053 | 74 | 17 | 4.0 | 11.0 | 0.00 | 0.00 | 0.00 | 44 | 1015.4 |
| 20260906171552 | 74 | 101 | 5.0 | 11.0 | 0.00 | 0.00 | 0.00 | 44 | 1015.4 |
| 20260906170053 | 74 | 59 | 4.0 | 14.0 | 0.00 | 0.00 | 0.00 | 45 | 1015.5 |
| 20260906164551 | 74 | 56 | 5.0 | 13.0 | 0.00 | 0.00 | 0.00 | 46 | 1015.6 |
| 20260906163047 | 75 | 85 | 4.0 | 11.0 | 0.00 | 0.00 | 0.00 | 46 | 1015.6 |
| 20260906161547 | 73 | 94 | 6.0 | 11.0 | 0.00 | 0.00 | 0.00 | 46 | 1015.8 |
| 20260906160039 | 73 | 82 | 5.0 | 11.0 | 0.00 | 0.00 | 0.00 | 47 | 1016.0 |
| 20260906154543 | 73 | 50 | 4.0 | 9.0 | 0.00 | 0.00 | 0.00 | 51 | 1015.8 |
| 20260906153035 | 72 | 66 | 7.0 | 10.0 | 0.00 | 0.00 | 0.00 | 60 | 1015.8 |
| 20260906151527 | 71 | 101 | 5.0 | 9.0 | 0.00 | 0.00 | 0.00 | 63 | 1015.8 |
| 20260906150023 | 71 | 69 | 4.0 | 9.0 | 0.00 | 0.00 | 0.00 | 63 | 1015.8 |
| 20260906144520 | 70 | 51 | 4.0 | 9.0 | 0.00 | 0.00 | 0.00 | 68 | 1015.6 |
| 20260906143014 | 69 | 76 | 5.0 | 10.0 | 0.00 | 0.00 | 0.00 | 69 | 1015.5 |
| 20260906141509 | 68 | 360 | 4.0 | 10.0 | 0.00 | 0.00 | 0.00 | 70 | 1015.5 |
| 20260906140006 | 67 | 86 | 4.0 | 12.0 | 0.00 | 0.00 | 0.00 | 72 | 1015.3 |
| 20260906134500 | 67 | 50 | 4.0 | 8.0 | 0.00 | 0.00 | 0.00 | 72 | 1015.3 |
| 20260906133100 | 67 | 81 | 2.0 | 5.0 | 0.00 | 0.00 | 0.00 | 73 | 1015.3 |
| 20260906131600 | 65 | 360 | 3.0 | 6.0 | 0.00 | 0.00 | 0.00 | 75 | 1015.2 |
| 20260906130055 | 64 | 360 | 3.0 | 6.0 | 0.00 | 0.00 | 0.00 | 75 | 1015.2 |
| 20260906124543 | 63 | 360 | 4.0 | 9.0 | 0.00 | 0.00 | 0.00 | 76 | 1015.1 |
| 20260906123043 | 62 | 360 | 4.0 | 8.0 | 0.00 | 0.00 | 0.00 | 77 | 1014.7 |
| 20260906121534 | 62 | 360 | 2.0 | 9.0 | 0.00 | 0.00 | 0.00 | 78 | 1014.4 |
| 20260906120030 | 61 | 360 | 5.0 | 11.0 | 0.00 | 0.00 | 0.00 | 79 | 1014.3 |
| 20260906114525 | 60 | 360 | 2.0 | 8.0 | 0.00 | 0.00 | 0.00 | 80 | 1014.2 |
| 20260906113020 | 59 | 360 | 2.0 | 5.0 | 0.00 | 0.00 | 0.00 | 80 | 1014.0 |
| 20260906111516 | 59 | 360 | 1.0 | 5.0 | 0.00 | 0.00 | 0.00 | 80 | 1014.0 |
| 20260906110013 | 59 | 50 | 0.0 | 6.0 | 0.00 | 0.00 | 0.00 | 80 | 1014.0 |
| 20260906104526 | 59 | 46 | 2.0 | 4.0 | 0.00 | 0.00 | 0.00 | 80 | 1013.6 |
| 20260906103031 | 59 | 54 | 2.0 | 4.0 | 0.00 | 0.00 | 0.00 | 80 | 1013.6 |
| 20260906101508 | 59 | 29 | 0.0 | 4.0 | 0.00 | 0.00 | 0.00 | 80 | 1013.6 |
| 20260906100020 | 59 | 40 | 0.0 | 6.0 | 0.00 | 0.00 | 0.00 | 80 | 1013.4 |
| 20260906094505 | 59 | 46 | 0.0 | 3.0 | 0.00 | 0.00 | 0.00 | 80 | 1013.5 |
| 20260906093015 | 59 | 71 | 1.0 | 4.0 | 0.00 | 0.00 | 0.00 | 80 | 1013.3 |
| 20260906091508 | 59 | 22 | 0.0 | 4.0 | 0.00 | 0.00 | 0.00 | 80 | 1013.2 |
| 20260906090001 | 60 | 46 | 1.0 | 4.0 | 0.00 | 0.00 | 0.00 | 80 | 1013.0 |
| 20260906084602 | 60 | 17 | 1.0 | 3.0 | 0.00 | 0.00 | 0.00 | 79 | 1012.9 |
| 20260906083100 | 60 | 20 | 0.0 | 0.0 | 0.00 | 0.00 | 0.00 | 79 | 1012.9 |
| 20260906081558 | 60 | 360 | 0.0 | 1.0 | 0.00 | 0.00 | 0.00 | 79 | 1012.8 |
| 20260906080057 | 61 | 24 | 0.0 | 4.0 | 0.00 | 0.00 | 0.00 | 79 | 1012.6 |
| 20260906074555 | 61 | 22 | 2.0 | 5.0 | 0.00 | 0.00 | 0.00 | 79 | 1012.7 |
| 20260906073054 | 61 | 360 | 3.0 | 5.0 | 0.00 | 0.00 | 0.00 | 79 | 1012.4 |
| 20260906071552 | 61 | 360 | 2.0 | 5.0 | 0.00 | 0.00 | 0.00 | 79 | 1012.3 |
| 20260906070051 | 61 | 360 | 1.0 | 4.0 | 0.00 | 0.00 | 0.00 | 78 | 1012.7 |
| 20260906064550 | 61 | 360 | 0.0 | 4.0 | 0.00 | 0.00 | 0.00 | 78 | 1012.5 |
| 20260906063049 | 61 | 360 | 0.0 | 3.0 | 0.00 | 0.00 | 0.00 | 78 | 1012.4 |
| 20260906061552 | 61 | 360 | 0.0 | 3.0 | 0.00 | 0.00 | 0.00 | 78 | 1012.4 |
| 20260906060045 | 62 | 360 | 0.0 | 3.0 | 0.00 | 0.00 | 0.00 | 77 | 1012.4 |
| 20260906054600 | 62 | 360 | 0.0 | 2.0 | 0.00 | 0.00 | 0.00 | 77 | 1012.2 |
| 20260906053041 | 63 | 360 | 0.0 | 2.0 | 0.00 | 0.00 | 0.00 | 76 | 1012.3 |
| 20260906051538 | 63 | 360 | 0.0 | 1.0 | 0.00 | 0.00 | 0.00 | 75 | 1012.3 |
| 20260906050039 | 64 | 360 | 1.0 | 5.0 | 0.00 | 0.00 | 0.00 | 74 | 1012.3 |
| 20260906044537 | 64 | 360 | 2.0 | 6.0 | 0.00 | 0.00 | 0.00 | 74 | 1012.2 |
| 20260906043034 | 64 | 360 | 1.0 | 5.0 | 0.00 | 0.00 | 0.00 | 73 | 1012.1 |
| 20260906041532 | 65 | 360 | 3.0 | 8.0 | 0.00 | 0.00 | 0.00 | 73 | 1012.4 |
| 20260906040044 | 65 | 360 | 2.0 | 5.0 | 0.00 | 0.00 | 0.00 | 73 | 1012.3 |
| 20260906034543 | 65 | 360 | 2.0 | 5.0 | 0.00 | 0.00 | 0.00 | 73 | 1012.3 |
| 20260906033028 | 66 | 360 | 2.0 | 8.0 | 0.00 | 0.00 | 0.00 | 73 | 1012.4 |
| 20260906031556 | 66 | 360 | 0.0 | 5.0 | 0.00 | 0.00 | 0.00 | 72 | 1012.5 |
| 20260906030024 | 67 | 360 | 2.0 | 5.0 | 0.00 | 0.00 | 0.00 | 72 | 1012.3 |
| 20260906024548 | 67 | 360 | 1.0 | 8.0 | 0.00 | 0.00 | 0.00 | 71 | 1012.2 |
| 20260906023025 | 68 | 360 | 1.0 | 6.0 | 0.00 | 0.00 | 0.00 | 70 | 1012.1 |
| 20260906021523 | 68 | 360 | 1.0 | 5.0 | 0.00 | 0.00 | 0.00 | 70 | 1011.9 |
| 20260906020021 | 69 | 360 | 1.0 | 6.0 | 0.00 | 0.00 | 0.00 | 70 | 1011.8 |
| 20260906014522 | 69 | 360 | 2.0 | 10.0 | 0.00 | 0.00 | 0.00 | 69 | 1011.5 |
| 20260906013020 | 70 | 360 | 2.0 | 8.0 | 0.00 | 0.00 | 0.00 | 70 | 1011.6 |
| 20260906011519 | 70 | 360 | 0.0 | 4.0 | 0.00 | 0.00 | 0.00 | 71 | 1011.3 |
| 20260906010038 | 70 | 360 | 0.0 | 2.0 | 0.00 | 0.00 | 0.00 | 71 | 1011.2 |
| 20260906004517 | 71 | 360 | 0.0 | 4.0 | 0.00 | 0.00 | 0.00 | 71 | 1011.2 |
| 20260906003017 | 71 | 360 | 0.0 | 2.0 | 0.00 | 0.00 | 0.00 | 71 | 1011.0 |
| 20260906001518 | 71 | 360 | 0.0 | 2.0 | 0.00 | 0.00 | 0.00 | 72 | 1010.9 |
| 20260906000019 | 72 | 360 | 0.0 | 1.0 | 0.00 | 0.00 | 0.00 | 71 | 1010.9 |
| 20260905234517 | 73 | 360 | 0.0 | 2.0 | 0.00 | 0.00 | 0.00 | 70 | 1010.8 |
| 20260905233013 | 74 | 360 | 2.0 | 5.0 | 0.00 | 0.00 | 0.00 | 69 | 1010.7 |
| 20260905231513 | 75 | 360 | 1.0 | 4.0 | 0.00 | 0.00 | 0.00 | 68 | 1010.8 |
| 20260905230026 | 76 | 350 | 2.0 | 5.0 | 0.00 | 0.00 | 0.00 | 68 | 1010.7 |
| 20260905224518 | 76 | 341 | 1.0 | 5.0 | 0.00 | 0.00 | 0.00 | 69 | 1010.7 |
| 20260905223015 | 76 | 318 | 1.0 | 8.0 | 0.00 | 0.00 | 0.00 | 70 | 1010.5 |
| 20260905221510 | 76 | 344 | 2.0 | 5.0 | 0.00 | 0.00 | 0.00 | 70 | 1010.4 |
| 20260905220010 | 76 | 360 | 2.0 | 9.0 | 0.00 | 0.00 | 0.00 | 70 | 1010.4 |
| 20260905214507 | 77 | 351 | 2.0 | 5.0 | 0.00 | 0.00 | 0.00 | 69 | 1009.9 |
| 20260905213007 | 77 | 333 | 2.0 | 5.0 | 0.00 | 0.00 | 0.00 | 68 | 1010.0 |
| 20260905211520 | 78 | 344 | 1.0 | 8.0 | 0.00 | 0.00 | 0.00 | 67 | 1009.9 |
| 20260905210010 | 78 | 350 | 2.0 | 6.0 | 0.00 | 0.00 | 0.00 | 68 | 1010.0 |
| 20260905204507 | 77 | 24 | 1.0 | 4.0 | 0.00 | 0.00 | 0.00 | 69 | 1010.0 |
| 20260905203005 | 76 | 30 | 2.0 | 6.0 | 0.00 | 0.00 | 0.00 | 69 | 1010.2 |
| 20260905201504 | 78 | 54 | 1.0 | 5.0 | 0.00 | 0.00 | 0.00 | 68 | 1010.2 |
| 20260905200003 | 78 | 13 | 1.0 | 6.0 | 0.00 | 0.00 | 0.00 | 68 | 1010.3 |
| 20260905194606 | 78 | 28 | 2.0 | 10.0 | 0.00 | 0.00 | 0.00 | 67 | 1010.6 |